Find Starlink 2547

NORAD ID: 48286 Int'l Des: 2021-036 Owner: SPXS Country: US Constellation: starlink operational
LEOCIRCULAR

Live Position

Loading 3D Globe...

About Starlink 2547

Description loading...

Upcoming Passes

Passes for default location (London). Set your location on the main map for personalized predictions.

Altitude History

Loading altitude history...

Two-Line Element Set

1 48286U 21036L 26121.90057865 .00007636 00000-0 25743-3 0 9998
2 48286 53.1597 188.0718 0001407 75.1857 284.9300 15.31720047276559
Epoch: May 1, 2026 • Age: 15 hours

Current Status

Altitude 481.6 km
Velocity 7.62 km/s
Sub-Earth Point -32.64°S, 16.89°W
Launch Date Apr 29, 2021
Age 5 years
Type internet

Technical Details

Classification Payload
Mass 260.00 kg
Dry Mass 248.00 kg
Total Mass 260.00 kg
Length 0.20 m
Diameter 2.80 m
Span 9.00 m
Shape Box + pan
Manufacturer SPXS
Bus Type Starlink
Phase Status In Orbit
Owner/State SPXS/US

Most Searched